Regional Weather Roundup
Issued by NWS

Home | Current Version | Previous Version | Text Only | Print | Product List | Glossary Off
Versions: 1 2 3 4 5 6 7 8 9 10 11 12 13 14 15 16 17 18 19 20 21 22 23 24 25 26 27

000
ASUS45 KPSR 200310
RWRAZ

ARIZONA HOURLY REGIONAL WEATHER ROUNDUP
NATIONAL WEATHER SERVICE PHOENIX AZ
800 PM MST THU APR 19 2018

NOTE: FAIR INDICATES FEW OR NO CLOUDS BELOW 12,000 FEET WITH NO
SIGNIFICANT WEATHER AND/OR OBSTRUCTIONS TO VISIBILITY.

AZZ001>003-036-200400-
NORTHWEST ARIZONA

CITY           SKY/WX    TMP DP  RH WIND       PRES   REMARKS
BULLHEAD CITY  PTCLDY    66  27  22 SW6G15    29.81R
KINGMAN        PTCLDY    53  22  29 SW15      29.84R
$$

AZZ004>008-015-016-018-200400-
NORTH CENTRAL ARIZONA

CITY           SKY/WX    TMP DP  RH WIND       PRES   REMARKS
WILLIAMS       CLOUDY    41   9  26 SW13G18   29.84R
PRESCOTT       CLEAR     48  12  23 SW10      29.86R
FLAGSTAFF      MOCLDY    41  13  31 W14G23    29.85R
PAYSON         CLOUDY    52  16  24 S10G18    29.87S
PAGE           PTCLDY    57  12  17 SW12G26   29.72R
$$

AZZ009>014-017-200400-
NORTHEAST ARIZONA

CITY           SKY/WX    TMP DP  RH WIND       PRES   REMARKS
WINSLOW        CLEAR     55  12  18 SW21G30   29.81R
SAINT JOHNS    PTCLDY    62   3   9 SW17      29.79R
WINDOW ROCK    CLOUDY    61   5  10 SW21G32   29.82R
SHOW LOW       PTCLDY    54   7  15 SW26      29.87R
$$

AZZ540-542>544-546-548-200400-
GREATER PHOENIX AREA

CITY           SKY/WX    TMP DP  RH WIND       PRES   REMARKS
PHOENIX        PTCLDY    68  26  20 W8        29.80R
BUCKEYE        CLEAR     66  25  20 W12       29.82R
GLENDALE       PTCLDY    68  27  21 S9G17     29.82R
LUKE AFB       CLEAR     67  26  21 SW15      29.79R
DEER VALLEY    CLEAR     66  24  20 SW16      29.81R
SCOTTSDALE     CLEAR     68  25  19 SW13G24   29.82R
MESA-FALCON    PTCLDY    68  27  21 W16G25    29.81R
MESA-GATEWAY   CLEAR     68  27  21 SW14      29.83R
CHANDLER       CLEAR     68  25  19 W6        29.81R
$$

AZZ539-553-200400-
SOUTHWEST MARICOPA COUNTY AND PINAL COUNTY

CITY           SKY/WX    TMP DP  RH WIND       PRES   REMARKS
CASA GRANDE    CLEAR     66  27  23 W17G24    29.83R
GILA BEND      CLEAR     65  29  26 W12       29.83R
$$

AZZ503-504-507>509-200400-
SOUTHEAST ARIZONA

CITY           SKY/WX    TMP DP  RH WIND       PRES   REMARKS
TUCSON         CLEAR     72  12  10 W13G21    29.87R
DAVIS-MONTHAN  CLEAR     71  16  12 NW10G18   29.86R
RYAN FIELD     CLEAR     70  12  11 W9        29.87R
NOGALES        CLEAR     67   6   9 SW12      29.94R
SIERRA VISTA   CLEAR     69   5   8 SW10G18   29.95
DOUGLAS        CLEAR     72   5   7 SW12      29.92R
SAFFORD        PTCLDY    76   2   5 NW17G23   29.77R
$$

AZZ532-200400-
SOUTHWEST ARIZONA

CITY           SKY/WX    TMP DP  RH WIND       PRES   REMARKS
YUMA           CLEAR     65  32  29 W21G30    29.86R
$$

CAZ041-043-047-048-061-525>527-560>570-200400-
SOUTHERN CALIFORNIA

CITY           SKY/WX    TMP DP  RH WIND       PRES   REMARKS
DOWNTOWN L.A.  CLEAR     57  48  72 CALM      30.00S
L.A. AIRPORT   PTCLDY    57  48  72 W13       30.01S
SAN DIEGO      MOCLDY    58  46  64 W7        30.07R
BURBANK        CLEAR     58  47  66 S6        29.99S
ONTARIO        PTCLDY    56  39  53 SW9       30.00R
RIVERSIDE      PTCLDY    56  39  53 W10       30.01R
PALM SPRINGS   PTCLDY    67  28  23 W20G32    29.90R
EL CENTRO NAS  PTCLDY    62  33  33 W24       29.91S
IMPERIAL       CLEAR     61  35  37 W22G29    29.89R
BLYTHE         PTCLDY    68  33  27 SW17      29.82S
NEEDLES        CLEAR     67  26  21 NW20      29.82R
$$

NVZ020-UTZ003-200400-
SOUTHERN NEVADA-UTAH

CITY           SKY/WX    TMP DP  RH WIND       PRES   REMARKS
LAS VEGAS      CLOUDY    59  31  34 NW15      29.81R
SALT LAKE CITY MOCLDY    54  29  38 N14       29.72R
$$

NMZ009-TXZ055-200400-
NEW MEXICO-WEST TEXAS

CITY           SKY/WX    TMP DP  RH WIND       PRES   REMARKS
ALBUQUERQUE    CLOUDY    64  26  23 SE32G40   29.92S
EL PASO        MOCLDY    73  34  23 E16G23    29.96R
$$


........................KEY........................
SKY/WX - SKY CONDITION/WEATHER
TMP    - TEMPERATURE IN FAHRENHEIT
DP     - DEW POINT IN FAHRENHEIT
RH     - RELATIVE HUMIDITY IN PERCENT
WIND   - DIRECTION AND SPEED IN MILES PER HOUR (MPH)
VRB    - VARIABLE WIND DIRECTION
PRES   - MEAN SEA LEVEL PRESSURE IN INCHES OF MERCURY
         F - FALLING PRESSURE   R - RISING PRESSURE
         S - STEADY PRESSURE
VSB    - VISIBILITY IN MILES
HX     - HEAT INDEX IN FAHRENHEIT
WCI    - WIND CHILL INDEX IN FAHRENHEIT
TC     - TEMPERATURE IN CELSIUS WHICH IS ALSO KNOWN AS
         TEMPERATURE IN CENTIGRADE
AFB    - AIR FORCE BASE
         LUKE AFB IS LUKE AIR FORCE BASE
         DAVIS-MONTHAN IS DAVIS-MONTHAN AIR FORCE BASE
NAS    - NAVAL AIR STATION
         EL CENTRO NAS IS EL CENTRO NAVAL AIR STATION
N/A    - NOT AVAILABLE





USA.gov is the U.S. government's official web portal to all federal, state and local government web resources and services.